Dewpoint
61 61 61 63 64 64 64 64 63 63 63 63 63 64 65 66 66 64 62 61 61 60 59 57 56 55 54 56 56 56 44 45
60 60 59 58 58 63 63 63 63 62 61 63 63 63 66 66 65 64 62 61 60 58 57 56 55 54 53 53 54 54 43 43
59 58 58 56 56 60 61 61 62 60 58 60 58 50 55 59 63 63 61 60 58 57 56 56 55 54 51 49 52 42 43 43
58 58 54 53 49 55 56 52 48 49 50 52 51 53 52 54 61 63 60 59 57 57 55 55 54 43 43 47 42 43 43 44
57 57 54 51 52 51 48 48 49 50 53 50 54 53 51 49 50 51 53 56 48 50 49 44 46 44 43 44 43 42 41 43
56 52 54 53 48 47 46 43 45 47 49 52 51 48 48 46 43 45 45 44 46 45 45 49 47 47 46 45 45 41 40 41
55 51 52 53 50 47 45 45 42 46 48 50 47 46 48 46 47 45 45 45 45 46 46 46 47 46 45 44 44 44 43 41
53 49 51 52 49 51 49 45 45 45 46 49 51 48 50 47 47 46 46 45 45 45 45 45 45 45 45 45 44 42 42 42
52 49 51 52 51 52 48 46 44 44 45 52 51 51 52 50 47 47 46 48 49 46 45 45 43 43 45 44 44 43 41 39
50 44 50 52 52 52 46 45 44 45 47 49 52 51 52 51 48 48 48 47 45 44 43 42 42 41 42 40 40 40 39 38
48 47 48 52 54 52 51 50 45 46 47 48 52 52 51 49 48 50 50 47 46 43 43 42 40 38 37 38 38 36 36 30
49 46 48 53 52 52 51 50 47 46 47 47 53 51 52 51 49 51 47 45 44 43 43 40 38 34 29 33 36 35 35 34
49 46 47 49 49 49 48 47 48 48 47 49 53 52 52 53 50 50 48 46 46 45 42 41 36 36 33 31 31 34 36 33
50 47 46 45 45 47 48 46 47 47 48 51 52 53 53 52 51 50 49 46 47 45 44 39 37 37 37 31 28 28 28 32
52 49 47 44 45 48 50 49 48 47 48 49 50 52 52 51 52 50 51 49 48 49 46 43 40 37 36 32 25 21 26 28
55 52 49 45 46 49 51 47 45 45 47 48 48 52 52 51 52 51 52 49 49 49 46 45 43 39 33 27 32 27 20 22
57 54 51 48 47 49 49 49 47 47 47 49 51 52 52 51 52 52 51 48 49 47 46 44 41 39 34 31 31 27 29 22
57 56 52 50 49 51 51 51 49 47 49 48 49 50 51 52 52 52 52 49 48 45 45 43 41 38 33 31 27 25 25 23
55 55 54 52 52 52 51 52 52 50 50 49 49 49 50 52 53 52 50 50 47 45 44 43 40 37 36 31 31 30 27 25
54 53 53 53 53 52 52 52 50 50 50 48 48 48 49 52 53 51 49 48 47 45 42 40 41 38 38 34 30 31 30 27
Lifted_Index
2 2 3 3 3 3 2 2 2 3 2 2 1 1 -0 -1 -1 0 1 2 3 4 5 6 7 8 9 9 9 9 9 9
2 2 3 4 4 3 3 2 3 3 3 3 2 2 0 -0 -0 1 2 3 3 5 6 7 7 8 9 9 9 9 9 9
2 3 4 5 5 4 4 4 4 5 5 4 4 3 2 1 1 1 2 3 4 5 6 7 8 8 9 10 9 9 9 9
2 3 4 5 5 5 5 5 6 6 6 5 4 4 4 3 2 2 3 4 5 6 7 7 8 8 9 9 9 9 9 9
3 4 5 6 6 6 6 7 7 6 6 5 5 5 5 5 5 4 5 5 6 7 7 8 8 8 9 9 9 9 10 10
3 4 5 6 6 6 7 7 7 7 6 6 5 5 6 6 6 6 6 6 7 7 7 8 8 8 9 9 9 9 10 10
4 5 6 6 6 6 7 8 8 7 6 6 6 6 6 6 6 6 6 7 7 7 7 7 8 8 9 9 9 10 10 11
5 6 6 6 6 6 7 8 8 7 6 6 5 5 5 6 6 6 6 7 7 7 8 8 8 8 9 9 9 10 11 11
5 6 6 6 5 5 6 7 7 7 6 6 5 5 5 5 6 6 6 7 7 8 8 8 8 9 9 9 10 11 12 13
6 6 6 5 5 5 6 7 7 7 6 6 5 5 5 5 5 6 6 7 7 8 8 8 9 9 10 10 11 12 13 14
6 7 6 5 5 5 6 6 7 7 6 6 6 5 5 5 5 5 6 7 7 8 8 8 9 9 10 11 12 13 14 15
6 7 6 6 5 5 5 5 6 6 6 6 6 5 5 5 5 5 6 7 7 7 8 8 8 9 10 12 13 14 15 15
5 6 7 6 6 5 5 5 5 5 6 6 5 5 5 5 5 5 6 7 7 7 8 8 8 9 10 11 13 14 15 15
4 5 7 7 6 5 5 5 5 5 5 5 5 5 5 5 5 5 6 6 7 7 8 8 8 8 9 10 12 13 14 15
2 3 5 7 7 5 5 5 5 5 5 5 5 5 5 5 5 5 5 6 6 7 7 7 7 7 8 10 11 12 13 14
1 2 3 5 6 5 5 5 5 5 5 5 5 5 5 5 5 5 6 6 6 7 7 7 7 7 8 10 12 13 13 13
1 1 2 3 5 5 5 5 4 5 5 5 5 5 5 5 5 5 6 6 7 7 7 7 7 6 7 8 11 13 14 14
1 1 1 2 3 4 5 5 5 5 5 5 5 5 5 5 5 6 6 7 7 7 7 7 7 6 6 7 10 12 14 15
1 1 1 1 2 3 4 5 5 5 5 5 5 5 5 5 5 6 7 7 8 7 7 7 6 6 6 7 9 13 15 16
1 1 1 1 2 3 4 4 5 5 5 5 5 5 5 5 5 6 7 7 8 7 7 7 6 6 6 7 9 13 15 16